AirNav   BOSE ProFlight Aviation Headset
 
 1668 users online  

7FL6 Spruce Creek Airport
Daytona Beach, Florida, USA

GOING TO DAYTONA BEACH?


FAA INFORMATION EFFECTIVE 21 JUNE 2018

Location

FAA Identifier: 7FL6
Lat/Long: 29-04-48.7027N / 081-02-47.8562W
29-04.811712N / 081-02.797603W
29.0801952 / -81.0466267
(estimated)
Elevation: 24.6 ft. / 7 m (estimated)
Variation: 05W (2000)
From city: 7 miles S of DAYTONA BEACH, FL
Time zone: UTC -4 (UTC -5 during Standard Time)
Zip code: 32124

Airport Operations

Airport use: Private use. Permission required prior to landing
Activation date: 01/1970
Control tower: no
ARTCC: JACKSONVILLE CENTER
FSS: SAINT PETERSBURG FLIGHT SERVICE STATION
NOTAMs facility: FDC (NOTAM-D service not available)
Attendance: 0800-DUSK
Wind indicator: yes
Segmented circle: yes
Beacon: white-green (lighted land airport)
ROTG BCN LCTD APRXLY 400 FT SE (PERPENDICULAR) FROM MID-POINT OF RY 06/24 ON 50 FT ANT POLE. Operates sunset to sunrise.

Airport Communications

WX AWOS-3 at EVB (5 nm E): 124.625 (386-409-4705)
WX ASOS at DAB (6 nm N): PHONE 386-253-7469
WX AWOS-3 at DED (12 nm W): 119.575 (386-740-5811)
WX AWOS-3 at OMN (14 nm N): 118.475 (386-615-7084)

Nearby radio navigation aids

VOR radial/distance  VOR name  Freq  Var
OMNr166/13.8ORMOND BEACH VORTAC112.6000E
ORLr025/35.6ORLANDO VORTAC112.2000E

Airport Services

Fuel available: 100LL JET-A+
FUEL 24 HR CREDIT CARD SVC AVBL. TRUCK SVC AVBL.
Parking: tiedowns
Airframe service: MINOR
Powerplant service: MINOR

Runway Information

Runway 6/24

Dimensions: 4002 x 176 ft. / 1220 x 54 m
Surface: asphalt, in excellent condition
Runway edge lights: medium intensity
RUNWAY 6  RUNWAY 24
Latitude: 29-04.607333N29-05.016167N
Longitude: 081-03.092833W081-02.502500W
Elevation: 23.1 ft.24.2 ft.
Traffic pattern: leftleft
Displaced threshold: 339 ft.338 ft.
Markings: nonprecision, in good conditionnonprecision, in good condition
Visual slope indicator: 2-light PAPI on left (3.00 degrees glide path)2-light PAPI on left (3.00 degrees glide path)
Runway end identifier lights: yesyes
Touchdown point: yes, no lightsyes, no lights
Obstructions: 50 ft. trees, 1200 ft. from runway, 20:1 slope to clear50 ft. trees, 1500 ft. from runway, 26:1 slope to clear

Airport Ownership and Management from official FAA records

Ownership: Privately-owned
Owner: SPRUCE CREEK PROPERTY OWNERS ASSN
212-1 CESSNA BLVD
PORT ORANGE, FL 32128
Phone (386) 760-5884
Manager: JOE FRIEND
212-1 CESSNA BLVD
PORT ORANGE, FL 32128
Phone (386) 275-1894

Airport Operational Statistics

Aircraft based on the field: 508
Single engine airplanes: 400
Multi engine airplanes: 90
Jet airplanes: 10
Helicopters: 5
Gliders airplanes: 1
Ultralights: 2
    
Aircraft operations: avg 60/day
91% local general aviation
9% transient general aviation

Additional Remarks

RY 06/24 TREES IN PRIM SFC BOTH SIDES 118' FM CNTRLN.
PPR.
FOR CD OR TO CNL IFR CTC DAB APCH AT 386-226-3939.
ARPT PROCEDURES AND NOTAMS ARE AVBL AT AIRPORT7FL6.COM

Instrument Procedures

There are no published instrument procedures at 7FL6.

Some nearby airports with instrument procedures:

KEVB - New Smyrna Beach Municipal Airport (5 nm E)
KDAB - Daytona Beach International Airport (6 nm N)
X50 - Massey Ranch Airpark (9 nm SE)
KDED - DeLand Municipal Airport-Sidney H Taylor Field (12 nm W)
KOMN - Ormond Beach Municipal Airport (14 nm N)
 
Loc | Ops | Rwys | IFR | FBO | Links
Com | Nav | Svcs | Stats | Notes


 
Area around 7FL6 (Spruce Creek Airport)
 
Road maps at: MapQuest Bing Google
 
Aerial photo
WARNING: Photo may not be current or correct
Aerial photo of 7FL6 (Spruce Creek Airport)
Photo by John Carpenter
Photo taken 19-Aug-2017
looking northeast.

Do you have a better or more recent aerial photo of Spruce Creek Airport that you would like to share? If so, please send us your photo.

 
Sectional chart

 
Airport distance calculator
Flying to Spruce Creek Airport? Find the distance to fly.

From to 7FL6

Sunrise and sunset
Times for 16-Jul-2018
 Local
(UTC-4)
 Zulu
(UTC)
Morning civil twilight06:1010:10
Sunrise06:3710:37
Sunset20:2400:24
Evening civil twilight20:5000:50

Current date and time
Zulu (UTC)  16-Jul-2018 20:16:44
Local (UTC-4)  16-Jul-2018 16:16:44
 
METAR
7FL6 SuperAWOS
161855Z AUTO VRB06KT 10SM 33/25 A3006
KEVB 
5nm E 
161947Z 11005KT 10SM SCT045 26/23 A3005
KDAB 
6nm N 
161953Z 13007KT 100V160 10SM -RA SCT050 SCT110 BKN150 29/23 A3003 RMK LTG DSNT S AND SW RAB49 TSE49 TS DSIPTD P0000 T02940233
KDED 
12nm W 
161955Z AUTO 00000KT 10SM BKN050 BKN075 BKN110 33/22 A3002 RMK AO2 LTG DSNT SW THRU N
KOMN 
14nm N 
161950Z 13007KT 10SM SCT050 32/23 A3003
TAF
KDAB 
6nm N 
161737Z 1618/1718 13004KT P6SM VCTS SCT040CB SCT140 SCT250 FM170100 19003KT P6SM SCT050 BKN120 FM171400 23007KT P6SM FEW025 SCT250
NOTAMs
Click for the latest NOTAMs
NOTAMs are issued by the DoD/FAA and will open in a separate window not controlled by AirNav.

 

 
 

FBO, Fuel Providers, and Aircraft Ground Support

  
 Business Name 
 
 Contact 
 
 Services / Description 
 
Fuel Prices
 
Comments
  
 Yelvington Jet Aviation
386-257-7791
[email]

Like us on facebook
Aviation fuel, Aircraft parking (ramp or tiedown), Catering, Rental cars delivered
 
Enterprise Rent-A-Car   National Car Rental  
 
More info about Yelvington Jet Aviation
Phillips 66
100LL Jet A Mogas
FS --- $3.77 --- 
SS $4.41 $3.77 $3.97 
 Updated 02-Jul-2018
 
   write
FS=Full service
SS=Self service
Update Fuel Prices
 

Would you like to see your business listed on this page?

 If your business provides an interesting product or service to pilots, flight crews, aircraft, or users of the Spruce Creek Airport, you should consider listing it here.  To start the listing process, click on the button below
 
Add a business
 

Other Pages about Spruce Creek Airport

scpoa.com/airport
 
Update a link
 
Copyright © AirNav, LLC. All rights reserved. Privacy Policy  Contact